Lapse_Rate
2.9 4.0 3.8 3.2 3.3 7.4 7.5 5.2 6.3 6.9 8.8 9.7 9.6 9.8 9.8 9.7 9.7 9.8 9.6 5.5 3.9 4.3 5.2 6.2 5.6 5.4 5.2 5.1 5.4 5.7 5.7 5.8 5.7 6.0 6.0 6.0 6.1 6.4 6.1 5.6 5.5 5.5 5.6
2.1 2.7 4.1 5.3 4.8 4.1 5.8 7.5 5.6 6.2 6.1 7.8 9.5 9.8 9.7 9.8 9.7 9.6 9.6 7.8 3.7 3.8 4.5 5.7 5.9 5.5 5.5 5.2 5.2 5.5 5.5 5.7 5.9 5.9 6.4 6.3 6.3 6.4 6.3 5.8 5.6 5.7 5.8
2.6 2.9 3.7 4.8 5.8 5.6 5.0 4.5 7.0 6.6 6.1 6.4 7.5 9.8 9.8 9.8 10.0 9.8 9.6 9.6 6.7 3.0 4.1 5.0 6.1 5.6 5.4 5.4 5.0 5.3 5.5 5.6 6.1 6.1 6.3 6.3 6.6 6.3 6.0 5.9 5.9 6.0 5.7
3.3 3.7 5.2 5.3 6.3 6.3 8.0 5.1 4.7 6.9 7.6 6.1 6.0 7.4 9.5 9.8 9.7 9.9 9.7 9.7 9.7 9.0 3.4 4.0 5.1 5.7 5.9 5.5 5.1 5.2 5.7 5.5 5.8 6.2 6.2 6.2 6.3 6.1 5.9 5.9 5.9 5.8 6.0
4.0 5.5 3.7 2.8 4.4 5.8 7.3 9.1 5.7 3.8 6.4 7.0 5.7 6.3 7.8 9.6 9.7 9.9 9.8 9.9 9.6 9.6 9.5 4.5 4.0 4.8 5.2 5.0 5.4 5.3 5.9 5.6 5.6 5.7 5.9 5.9 5.9 5.9 5.7 5.6 5.8 5.9 5.9
4.5 4.8 6.3 5.5 4.1 8.9 9.3 9.5 9.1 7.7 4.2 6.2 6.8 6.4 7.1 8.2 9.8 9.8 9.7 10.1 9.8 9.6 9.5 9.6 6.2 5.9 4.3 4.7 5.0 5.5 5.9 6.1 5.9 5.8 5.8 5.8 5.7 5.5 5.6 5.4 5.4 5.6 5.7
6.5 7.9 8.4 6.9 6.3 8.9 9.5 9.6 9.5 9.2 8.0 5.0 5.8 5.8 6.2 7.9 8.5 9.5 9.8 9.8 9.8 9.8 9.4 9.5 9.5 8.4 7.3 4.3 4.5 5.1 5.7 6.4 6.2 5.8 5.6 5.6 5.4 5.3 5.1 5.0 5.1 5.2 5.4
7.6 8.3 8.3 8.4 7.8 7.6 7.7 9.1 9.2 9.2 9.3 6.4 5.4 6.5 6.8 5.7 6.4 8.1 9.0 9.2 9.5 9.9 9.7 8.9 9.4 9.4 9.7 8.6 6.6 4.5 5.7 6.4 6.3 6.0 5.7 5.5 5.1 4.9 5.0 4.9 4.9 4.8 4.9
8.0 7.8 7.7 7.7 7.7 7.9 7.6 7.3 8.8 9.0 7.8 9.1 6.7 5.5 6.2 6.5 5.7 6.5 7.2 7.8 9.0 9.2 9.6 9.6 9.0 9.3 9.5 9.4 8.6 5.6 4.3 5.2 5.9 5.9 5.7 5.5 5.2 4.9 4.7 4.8 4.9 5.1 5.0
6.1 5.5 5.9 6.5 6.7 6.7 7.2 7.4 7.8 8.2 9.1 8.2 9.0 6.9 6.7 7.2 6.0 6.5 6.5 7.0 8.0 9.2 9.2 9.5 9.5 8.6 9.2 8.3 9.3 8.9 4.3 3.7 4.7 5.4 5.8 5.9 5.5 5.2 5.0 4.8 4.8 5.0 5.1
5.1 4.4 4.5 4.5 4.8 5.3 5.4 5.9 6.0 7.1 9.0 9.3 9.2 9.1 7.3 7.2 7.0 6.6 7.0 6.0 7.3 8.2 9.3 9.1 9.5 9.5 8.5 8.6 8.5 8.9 4.6 2.6 3.1 4.0 4.9 5.7 6.0 5.5 5.3 5.1 5.0 5.0 5.0
5.1 4.3 4.2 4.4 4.5 4.8 5.3 5.7 6.0 6.4 7.0 9.2 9.7 10.0 7.3 6.5 6.6 5.9 5.9 6.7 7.1 8.2 9.3 9.6 9.0 9.5 9.7 8.9 8.1 8.5 5.2 2.4 1.4 2.4 3.4 4.2 5.1 5.3 5.2 5.1 5.0 4.8 4.9
5.0 4.8 4.8 4.4 4.3 4.1 4.2 4.5 5.1 5.7 6.4 8.3 9.4 8.5 8.5 8.2 8.8 7.9 4.5 4.9 5.7 7.4 8.4 9.3 9.5 9.6 9.8 9.4 7.7 6.6 2.8 2.2 1.6 1.2 1.8 2.7 3.6 4.2 4.9 5.1 5.0 5.0 5.0
7.1 5.7 4.4 4.5 4.3 3.4 2.7 3.5 5.2 4.6 6.6 8.0 8.9 9.0 7.5 8.6 8.2 8.4 7.4 7.6 7.3 7.3 7.8 8.6 9.0 9.7 9.6 9.4 8.1 3.5 6.1 1.3 -0.1 0.2 0.6 1.3 1.9 2.3 3.0 4.0 4.4 4.5 4.6
7.4 6.7 5.4 5.1 4.0 3.3 2.9 2.6 2.2 1.4 3.2 4.7 7.3 8.4 7.8 6.2 5.3 7.5 7.2 7.5 7.7 7.4 7.6 8.1 7.7 7.9 6.6 2.2 -0.5 6.4 6.5 4.1 0.8 -0.6 -0.6 0.0 0.6 0.9 1.3 1.9 2.5 2.8 3.5
7.1 6.7 5.9 5.1 4.8 3.4 2.9 1.9 0.3 0.4 1.3 1.9 0.4 1.6 1.2 3.2 2.1 2.2 3.8 5.2 5.6 6.5 7.2 6.1 3.3 0.8 0.7 0.1 -1.6 -0.3 -1.0 -2.2 -2.6 -2.4 -2.6 -2.4 -2.2 -1.5 -0.6 0.3 0.8 1.3 1.9
5.7 5.9 6.3 4.8 4.3 3.0 3.4 2.7 0.4 -0.6 0.7 1.3 -0.6 -0.9 -1.0 -0.5 -0.6 0.1 0.3 0.9 1.8 2.9 6.7 2.7 0.7 0.3 -1.1 -1.1 -1.1 -1.2 -0.9 -1.5 -0.6 -2.0 -2.5 -2.8 -2.7 -2.5 -2.2 -1.7 -0.9 -0.3 0.3
3.9 5.1 4.2 3.4 3.1 3.6 3.1 2.2 2.3 0.7 2.0 2.4 1.3 -0.5 -0.5 0.8 -0.4 0.1 -0.5 0.1 0.2 0.2 3.0 6.2 -1.7 -1.5 0.8 -1.8 -1.7 -2.1 -1.9 -2.0 -0.7 -1.6 -1.4 -1.9 -2.2 -1.7 -0.4 -1.4 -2.5 -2.9 -2.4
1.7 2.3 3.6 3.3 2.3 2.4 2.6 0.8 1.4 2.4 2.9 2.9 2.5 1.3 1.2 0.6 -0.3 0.1 0.6 -0.3 -0.6 -0.4 -0.9 -0.5 -0.1 -0.7 0.8 -2.0 -1.4 -0.5 -1.0 -0.6 -0.0 -1.0 -1.5 -1.6 -1.7 -0.5 -0.7 -1.9 -2.5 -2.9 -3.1
2.9 2.5 2.8 3.5 2.2 1.9 1.4 1.0 0.7 2.1 1.7 1.6 2.3 3.2 0.9 2.1 0.9 0.7 1.1 0.8 0.2 0.6 0.3 0.8 1.4 1.1 0.1 -0.1 -0.4 -0.3 0.5 0.1 1.8 1.3 0.6 -0.4 -0.1 1.8 3.1 2.2 -0.5 -2.4 -2.7
6.7 4.6 3.3 2.3 1.7 1.1 1.9 1.6 2.7 1.9 3.4 2.7 1.2 0.9 1.5 0.6 0.7 1.1 1.3 1.6 0.7 0.3 -0.1 0.1 1.7 1.0 -0.1 0.2 1.6 1.0 -0.0 -0.6 4.8 1.0 2.0 2.0 3.8 2.5 2.8 5.7 2.5 0.5 -1.4
9.8 9.3 7.2 4.4 1.3 1.9 2.0 2.0 2.3 2.5 1.7 3.9 3.4 2.4 2.8 0.3 1.2 0.5 -0.2 2.1 -0.0 1.3 1.7 1.3 1.3 1.3 0.8 0.5 0.8 0.8 1.6 0.5 1.8 1.4 0.1 1.6 4.2 2.6 4.0 4.7 2.2 0.7 -1.0
9.4 9.6 9.3 7.1 5.1 3.0 2.6 2.5 4.4 3.4 2.4 2.4 2.2 3.2 4.7 4.0 4.3 4.5 2.8 2.0 1.0 1.6 1.5 2.7 2.2 2.8 1.9 1.6 2.0 2.1 2.6 3.9 3.9 3.3 1.2 2.5 2.3 1.6 1.8 2.6 1.8 0.2 -0.7
7.8 7.9 7.6 9.1 6.5 4.4 3.0 5.7 5.2 5.8 3.6 3.4 2.9 3.4 3.8 3.7 3.5 5.6 5.7 3.9 2.7 1.7 2.2 3.1 3.4 3.5 3.2 3.3 4.3 4.9 4.5 5.2 7.4 6.6 3.6 2.4 2.1 1.6 1.2 1.6 2.1 1.5 2.1
6.4 6.2 5.8 5.1 5.7 4.9 2.6 2.5 4.9 5.3 6.2 3.8 3.1 2.7 2.7 2.0 1.7 3.1 5.1 5.6 3.6 3.1 4.5 4.0 3.8 3.6 3.6 3.2 2.8 5.4 5.2 7.9 8.1 8.4 5.3 5.3 5.9 4.2 1.6 4.5 4.1 3.5 2.7
7.3 5.5 5.3 4.9 4.1 4.6 3.6 3.1 4.5 4.7 3.3 3.9 3.5 3.3 2.8 2.4 1.9 1.6 2.2 2.6 1.4 1.6 1.7 2.8 3.3 3.3 3.7 3.6 3.0 4.1 5.1 8.3 8.5 8.5 6.6 6.3 8.5 8.4 7.8 6.9 4.7 3.1 3.6
Wind_Speed
9 12 11 12 13 16 13 7 8 9 15 16 18 16 15 16 17 14 14 21 21 19 20 19 20 20 19 18 17 16 15 17 19 19 21 22 21 20 19 18 17 18 18
13 10 11 10 10 13 15 13 9 9 10 14 17 16 16 16 18 17 17 17 23 23 21 20 22 22 21 20 19 19 18 18 19 20 20 22 22 21 19 18 18 18 18
16 14 11 11 12 16 15 14 14 12 10 10 18 16 15 16 14 17 18 18 19 24 25 23 22 24 23 23 20 19 19 19 20 20 21 23 24 22 20 20 18 17 17
18 16 11 11 16 16 12 8 10 11 14 11 10 13 13 15 17 16 18 19 18 19 24 25 25 23 26 24 24 23 21 20 21 21 22 22 23 23 22 22 20 17 16
20 17 10 13 18 12 12 12 9 9 11 12 11 11 13 15 16 14 17 17 20 19 18 28 29 26 26 25 26 25 25 23 24 23 23 23 23 24 24 24 22 19 18
18 18 13 12 17 12 12 13 15 12 10 11 11 12 14 13 15 14 16 15 18 21 21 19 25 25 26 25 26 27 27 26 25 26 25 25 25 25 25 24 23 22 21
20 17 10 11 11 14 14 15 15 16 11 11 10 10 10 17 14 14 13 15 17 18 19 20 17 20 23 28 26 25 27 27 28 28 28 27 26 26 27 27 26 25 23
21 17 12 13 12 10 14 16 16 13 14 10 5 9 5 7 12 13 12 13 16 14 16 17 21 20 20 22 27 26 27 27 27 27 28 28 28 28 27 28 28 28 27
21 19 17 13 13 12 10 13 16 16 12 13 14 6 5 7 2 5 14 12 15 13 14 16 16 22 22 20 25 28 32 30 27 29 29 28 28 28 29 29 29 29 29
19 21 18 13 13 10 12 12 11 15 13 14 13 9 15 4 4 4 7 14 14 15 17 14 15 14 21 18 22 22 30 32 31 28 29 29 28 28 29 30 30 30 30
20 20 18 14 13 9 11 12 12 12 14 15 15 13 13 12 6 6 12 6 12 13 14 14 14 14 18 19 17 22 23 33 35 31 28 28 30 29 30 30 31 32 32
10 13 17 13 13 12 11 11 13 15 14 17 16 15 10 8 10 5 3 8 8 11 14 14 14 14 14 17 20 22 29 28 29 31 30 28 27 28 31 32 33 33 34
11 13 15 13 11 12 13 13 13 13 14 17 19 14 13 11 11 12 9 10 8 9 9 12 13 14 13 15 17 24 23 29 29 28 28 28 28 27 27 29 31 33 34
10 14 14 13 14 13 12 10 7 8 13 15 21 17 13 13 12 11 12 12 11 13 9 12 11 12 12 13 13 12 13 22 23 23 23 22 22 22 22 22 24 30 33
11 12 13 13 13 14 15 13 10 13 14 4 10 14 13 5 4 9 9 9 13 14 14 10 5 2 1 9 13 5 7 13 22 19 18 19 20 21 20 23 25 23 24
16 16 15 15 15 17 18 17 15 16 14 10 8 10 10 6 5 4 2 3 5 8 8 1 7 6 8 6 16 17 20 26 26 21 16 8 5 10 14 17 19 21 24
19 18 18 17 16 19 20 17 19 21 19 16 15 15 15 12 7 7 6 6 5 5 10 3 7 11 10 10 10 14 16 15 14 21 23 22 22 16 7 7 12 14 17
16 19 19 18 17 17 18 20 20 21 18 20 20 20 18 11 15 11 8 9 7 6 3 7 4 5 8 10 10 11 9 14 11 18 20 21 20 19 16 18 19 17 17
17 18 18 18 17 17 18 21 19 18 19 21 21 21 21 19 17 13 11 10 9 10 11 9 6 6 2 9 9 8 9 8 10 17 18 20 19 17 19 24 24 22 21
14 16 17 16 18 19 19 20 20 17 18 18 19 19 22 20 22 18 14 12 11 12 11 9 7 6 4 4 6 8 7 8 6 12 14 14 16 10 20 15 24 22 22
15 13 15 17 18 19 15 18 19 18 17 18 17 18 18 26 32 28 16 15 14 11 10 9 7 9 9 8 8 5 6 5 3 10 8 7 7 10 10 15 23 17 23
16 17 19 20 18 14 28 28 21 16 18 18 16 17 16 23 23 28 29 29 26 15 15 11 11 11 15 11 9 9 9 6 4 10 10 7 10 10 8 16 11 15 24
16 18 19 20 21 19 27 26 23 17 17 17 18 17 16 14 17 15 21 23 27 27 19 15 15 13 13 13 11 11 11 9 7 8 9 7 10 9 14 17 6 16 24
15 16 18 19 19 18 25 20 19 17 17 19 20 18 16 19 19 16 14 16 16 19 19 13 13 12 13 11 10 7 8 8 5 7 10 5 8 8 9 15 4 21 24
14 14 15 17 19 20 29 25 18 14 15 17 17 20 19 20 28 23 14 14 15 14 16 20 19 19 17 18 19 9 9 8 6 4 8 7 6 8 7 5 11 22 24
12 11 14 16 20 18 29 27 18 11 14 12 14 16 26 21 25 23 16 15 14 14 14 13 12 15 16 17 20 13 9 8 8 2 9 7 7 8 5 3 10 13 19
Wind_Direction
303 301 293 289 291 272 241 233 243 242 244 235 231 233 232 230 236 229 225 186 203 203 208 204 198 196 196 195 197 201 204 202 197 197 196 189 187 186 180 179 179 181 187
305 298 289 285 281 279 280 243 220 231 234 246 238 232 233 232 226 227 227 195 200 201 209 209 201 199 199 200 201 203 203 206 203 199 199 192 188 187 187 186 189 193 197
304 298 289 283 277 271 272 305 245 225 235 232 245 238 231 233 232 223 227 229 193 203 205 214 209 199 199 198 202 208 207 206 208 201 197 193 193 191 191 194 198 205 212
306 299 292 284 283 282 271 265 293 240 229 225 229 240 239 233 228 229 221 226 222 201 208 211 215 209 203 198 200 205 210 205 204 203 197 196 196 195 197 200 202 209 217
306 302 290 283 277 277 274 271 268 286 251 228 221 226 237 239 230 225 228 220 223 222 204 200 212 213 209 204 203 204 207 205 204 201 198 197 199 199 200 203 206 211 213
302 298 292 284 288 278 269 264 262 261 272 247 226 226 229 231 234 225 226 224 217 219 225 213 200 215 214 210 205 205 205 208 208 204 201 202 203 203 205 205 205 208 212
304 296 290 287 283 282 279 274 270 258 261 275 233 230 222 227 233 233 227 221 221 215 218 222 197 205 208 215 209 207 209 209 210 206 205 203 203 205 206 207 207 208 211
313 302 293 288 282 284 282 278 270 269 256 243 272 245 227 230 228 223 234 228 224 217 213 217 214 211 213 201 214 208 208 211 209 208 208 206 205 205 209 209 210 209 209
315 314 310 302 288 278 272 279 283 252 275 264 219 251 219 217 173 202 233 238 228 221 220 216 220 215 208 216 202 206 206 207 210 208 210 208 208 209 209 211 212 214 213
324 318 315 315 318 309 281 265 260 274 251 257 259 225 247 271 177 206 213 227 227 225 219 219 216 221 213 209 222 209 201 206 210 211 210 210 211 210 213 213 214 215 216
329 323 320 313 302 290 278 278 283 256 264 251 246 245 230 225 222 225 210 199 228 224 224 219 223 215 212 209 213 219 197 204 208 211 212 213 211 210 213 215 217 217 217
328 330 325 313 307 297 287 272 264 261 242 253 249 248 222 201 198 178 204 219 205 218 224 215 216 221 217 212 215 216 197 204 210 212 215 216 216 213 215 215 216 217 219
339 337 333 327 323 314 302 290 274 255 237 240 244 249 241 216 209 219 198 204 235 258 233 224 219 219 222 215 212 211 197 204 209 212 215 217 219 219 219 220 219 220 220
339 342 343 336 340 338 329 313 308 315 234 242 241 240 258 230 226 226 212 197 208 216 225 228 222 224 221 223 221 201 216 209 218 216 219 222 220 224 226 230 230 226 223
348 358 356 352 359 1 6 12 15 6 342 342 288 232 261 237 270 226 218 218 212 208 205 206 191 177 335 59 12 199 221 207 214 219 225 230 232 232 228 228 235 238 240
4 8 9 12 15 19 25 30 28 23 20 22 25 34 22 35 55 49 355 239 213 218 209 315 40 57 30 61 40 59 61 74 51 50 54 38 302 266 254 248 242 243 242
11 14 17 18 23 30 28 30 40 36 31 30 39 44 37 23 33 48 39 35 36 310 205 121 66 23 9 43 37 43 47 44 54 46 46 38 34 25 345 298 283 271 262
17 18 17 22 25 31 28 35 36 38 33 34 42 46 37 33 32 33 50 62 53 20 349 166 65 86 339 33 42 40 43 33 44 50 46 40 24 14 27 40 33 15 343
24 23 19 20 25 29 32 40 37 35 40 36 39 43 42 36 33 24 21 45 53 52 52 63 76 56 349 23 33 26 41 12 40 44 27 34 19 27 47 53 42 32 19
32 32 27 22 29 30 33 39 32 31 38 38 37 38 50 40 43 29 22 22 43 59 59 62 54 49 42 20 34 25 14 19 40 34 32 29 12 35 35 39 31 37 25
44 40 39 33 33 35 32 39 42 33 36 44 39 35 44 51 49 49 39 18 40 51 57 57 45 53 43 32 16 13 14 9 36 30 12 2 30 39 23 357 14 16 18
38 42 42 41 36 34 37 45 45 40 39 38 41 43 35 43 48 49 54 43 49 43 54 54 42 41 31 20 16 23 12 11 350 20 0 344 28 25 359 348 20 4 12
42 40 42 43 42 37 32 38 42 48 47 42 40 38 37 40 43 48 54 49 48 49 49 55 55 42 36 19 10 17 15 7 0 357 3 356 20 353 345 327 35 10 5
44 43 40 41 41 37 31 36 41 51 49 47 43 42 39 39 31 43 50 54 48 48 42 52 51 47 41 19 2 20 5 359 0 54 16 0 345 336 317 305 20 3 351
46 45 45 40 41 38 30 23 37 43 52 49 46 40 37 34 30 29 40 51 55 47 48 56 60 55 48 36 19 14 15 15 17 25 30 348 347 324 304 305 7 344 339
52 52 47 44 40 40 37 34 27 36 39 39 43 41 41 43 39 34 38 35 37 25 23 27 33 42 36 31 31 27 13 12 8 350 40 348 342 348 331 299 342 327 322